Simultaneous Nadir Overpasses (SNOs) Predictions

Prediction of SNOs between LANDSAT-8 and METOP-A Satellite Orbit:

Table of predicted SNOs for the next 14.0 days since TLE Epoch: 10/31/2015
Index Date (LANDSAT-8) Time (LANDSAT-8) Lat,Lon (LANDSAT-8) SZA (LANDSAT-8 ) Date (METOP-A) Time (METOP-A) Lat,Lon (METOP-A) SZA (METOP-A ) Distance(km) Time Diff (sec)
1 11/02/2015 12:34:19 -81.17,-147.82 81.63 11/02/2015 12:33:14 -81.18,-147.73 81.65 1.48 65
2 11/02/2015 13:23:45 81.18, 19.91 98.40 11/02/2015 13:23:54 81.18, 19.84 98.40 1.32 9
3 11/05/2015 08:08:34 -81.18, -81.24 80.74 11/05/2015 08:07:31 -81.18, -81.09 80.75 2.60 63
4 11/05/2015 08:58:00 81.19, 86.46 99.28 11/05/2015 08:58:11 81.19, 86.44 99.29 0.43 11
5 11/08/2015 03:42:50 -81.16, -15.13 79.96 11/08/2015 03:41:50 -81.16, -15.26 80.00 2.17 60
6
